Time,TemperatureF,DewpointF,PressureIn,WindDirection,WindDirectionDegrees,WindSpeedMPH,WindSpeedGustMPH,Humidity,HourlyPrecipIn,Conditions,Clouds,dailyrainin,SoftwareType,DateUTC
2013-03-09 00:08:00,22.4,21.0,30.43,NE,42,0.0,-999.0,92,-99.99,,,0.00,weatherlink.com 1.10,2013-03-09 05:08:00,
2013-03-09 00:23:00,22.4,21.0,30.43,NNE,28,0.0,-999.0,92,-99.99,,,0.00,weatherlink.com 1.10,2013-03-09 05:23:00,
2013-03-09 00:38:00,22.4,21.0,30.43,NE,55,0.0,-999.0,92,-99.99,,,0.00,weatherlink.com 1.10,2013-03-09 05:38:00,
2013-03-09 00:53:00,22.4,21.0,30.44,NE,53,0.0,-999.0,92,-99.99,,,0.00,weatherlink.com 1.10,2013-03-09 05:53:00,
2013-03-09 01:08:00,22.5,21.0,30.44,NE,34,0.0,-999.0,92,-99.99,,,0.00,weatherlink.com 1.10,2013-03-09 06:08:00,
2013-03-09 01:23:00,22.8,21.0,30.45,NE,34,0.0,-999.0,91,-99.99,,,0.00,weatherlink.com 1.10,2013-03-09 06:23:00,
2013-03-09 01:38:00,22.9,21.0,30.44,ENE,64,0.0,-999.0,91,-99.99,,,0.00,weatherlink.com 1.10,2013-03-09 06:38:00,
2013-03-09 01:53:00,22.8,21.0,30.44,North,11,0.0,-999.0,91,-99.99,,,0.00,weatherlink.com 1.10,2013-03-09 06:53:00,
2013-03-09 02:08:00,23.0,21.0,30.43,NE,44,0.0,-999.0,91,-99.99,,,0.00,weatherlink.com 1.10,2013-03-09 07:08:00,
2013-03-09 02:23:00,22.8,21.0,30.42,NNE,24,0.0,-999.0,92,-99.99,,,0.00,weatherlink.com 1.10,2013-03-09 07:23:00,
2013-03-09 02:38:00,22.6,21.0,30.41,ENE,63,0.0,-999.0,92,-99.99,,,0.00,weatherlink.com 1.10,2013-03-09 07:38:00,
2013-03-09 02:53:00,22.7,21.0,30.41,NE,41,0.0,-999.0,91,-99.99,,,0.00,weatherlink.com 1.10,2013-03-09 07:53:00,
2013-03-09 03:08:00,23.0,21.0,30.40,NE,40,0.0,-999.0,91,-99.99,,,0.00,weatherlink.com 1.10,2013-03-09 08:08:00,
2013-03-09 03:23:00,23.3,21.0,30.40,NE,43,0.0,-999.0,90,-99.99,,,0.00,weatherlink.com 1.10,2013-03-09 08:23:00,
2013-03-09 03:38:00,23.6,21.0,30.40,NNE,24,0.0,-999.0,90,-99.99,,,0.00,weatherlink.com 1.10,2013-03-09 08:38:00,
2013-03-09 03:54:00,24.0,22.0,30.40,NE,34,0.0,-999.0,90,-99.99,,,0.00,weatherlink.com 1.10,2013-03-09 08:54:00,
2013-03-09 04:09:00,24.3,22.0,30.41,NE,42,0.0,-999.0,89,-99.99,,,0.00,weatherlink.com 1.10,2013-03-09 09:09:00,
2013-03-09 04:24:00,24.5,22.0,30.41,NE,50,0.0,-999.0,89,-99.99,,,0.00,weatherlink.com 1.10,2013-03-09 09:24:00,
2013-03-09 04:39:00,24.7,22.0,30.41,NE,47,0.0,-999.0,88,-99.99,,,0.00,weatherlink.com 1.10,2013-03-09 09:39:00,
2013-03-09 04:54:00,24.9,22.0,30.42,NE,51,0.0,-999.0,88,-99.99,,,0.00,weatherlink.com 1.10,2013-03-09 09:54:00,
2013-03-09 05:09:00,25.2,22.0,30.42,NE,46,0.0,-999.0,87,-99.99,,,0.00,weatherlink.com 1.10,2013-03-09 10:09:00,
2013-03-09 05:24:00,25.4,22.0,30.42,NE,42,0.0,-999.0,87,-99.99,,,0.00,weatherlink.com 1.10,2013-03-09 10:24:00,
2013-03-09 05:39:00,25.5,22.0,30.42,NE,52,0.0,-999.0,87,-99.99,,,0.00,weatherlink.com 1.10,2013-03-09 10:39:00,
2013-03-09 05:54:00,25.5,22.0,30.42,NE,48,0.0,-999.0,87,-99.99,,,0.00,weatherlink.com 1.10,2013-03-09 10:54:00,
2013-03-09 06:09:00,25.6,22.0,30.42,NE,49,0.0,-999.0,87,-99.99,,,0.00,weatherlink.com 1.10,2013-03-09 11:09:00,
2013-03-09 06:24:00,25.7,22.0,30.42,NE,47,0.0,-999.0,87,-99.99,,,0.00,weatherlink.com 1.10,2013-03-09 11:24:00,
2013-03-09 06:39:00,25.7,22.0,30.42,NE,35,0.0,-999.0,87,-99.99,,,0.00,weatherlink.com 1.10,2013-03-09 11:39:00,
2013-03-09 06:54:00,26.1,23.0,30.42,NE,49,0.0,-999.0,86,-99.99,,,0.00,weatherlink.com 1.10,2013-03-09 11:54:00,
2013-03-09 07:09:00,26.8,23.0,30.43,NE,41,0.0,-999.0,84,-99.99,,,0.00,weatherlink.com 1.10,2013-03-09 12:09:00,
2013-03-09 07:24:00,27.8,23.0,30.43,NE,53,0.0,-999.0,82,-99.99,,,0.00,weatherlink.com 1.10,2013-03-09 12:24:00,
2013-03-09 07:39:00,28.5,23.0,30.44,NE,47,0.0,-999.0,80,-99.99,,,0.00,weatherlink.com 1.10,2013-03-09 12:39:00,
2013-03-09 07:54:00,29.2,23.0,30.44,NE,40,0.0,-999.0,78,-99.99,,,0.00,weatherlink.com 1.10,2013-03-09 12:54:00,
2013-03-09 08:09:00,29.9,24.0,30.45,NE,36,0.0,-999.0,77,-99.99,,,0.00,weatherlink.com 1.10,2013-03-09 13:09:00,
2013-03-09 08:24:00,30.5,24.0,30.46,NE,38,0.0,-999.0,76,-99.99,,,0.00,weatherlink.com 1.10,2013-03-09 13:24:00,
2013-03-09 08:39:00,31.0,24.0,30.45,NE,46,0.0,-999.0,75,-99.99,,,0.00,weatherlink.com 1.10,2013-03-09 13:39:00,
2013-03-09 08:54:00,31.4,24.0,30.45,NE,53,0.0,-999.0,74,-99.99,,,0.00,weatherlink.com 1.10,2013-03-09 13:54:00,
2013-03-09 09:09:00,31.7,24.0,30.45,ENE,64,0.0,-999.0,74,-99.99,,,0.00,weatherlink.com 1.10,2013-03-09 14:09:00,
2013-03-09 09:24:00,31.9,25.0,30.45,ENE,74,0.0,-999.0,74,-99.99,,,0.00,weatherlink.com 1.10,2013-03-09 14:24:00,
2013-03-09 09:39:00,32.1,24.0,30.46,ENE,57,0.0,-999.0,73,-99.99,,,0.00,weatherlink.com 1.10,2013-03-09 14:39:00,
2013-03-09 09:54:00,31.9,24.0,30.45,ENE,60,0.0,-999.0,73,-99.99,,,0.00,weatherlink.com 1.10,2013-03-09 14:54:00,
2013-03-09 10:09:00,31.8,24.0,30.46,ENE,78,0.0,-999.0,73,-99.99,,,0.00,weatherlink.com 1.10,2013-03-09 15:09:00,
2013-03-09 10:24:00,31.7,24.0,30.45,NNE,32,0.0,-999.0,73,-99.99,,,0.00,weatherlink.com 1.10,2013-03-09 15:24:00,
2013-03-09 10:39:00,31.7,24.0,30.45,NE,44,0.0,-999.0,73,-99.99,,,0.00,weatherlink.com 1.10,2013-03-09 15:39:00,
2013-03-09 10:54:00,31.9,24.0,30.45,NE,53,0.0,-999.0,73,-99.99,,,0.00,weatherlink.com 1.10,2013-03-09 15:54:00,
2013-03-09 11:09:00,32.1,24.0,30.45,East,86,0.0,-999.0,73,-99.99,,,0.00,weatherlink.com 1.10,2013-03-09 16:09:00,
2013-03-09 11:24:00,32.3,24.0,30.45,East,85,0.0,-999.0,72,-99.99,,,0.00,weatherlink.com 1.10,2013-03-09 16:24:00,
2013-03-09 11:39:00,32.3,24.0,30.45,ENE,70,0.0,-999.0,72,-99.99,,,0.00,weatherlink.com 1.10,2013-03-09 16:39:00,
2013-03-09 11:54:00,32.4,24.0,30.45,NE,54,0.0,-999.0,72,-99.99,,,0.00,weatherlink.com 1.10,2013-03-09 16:54:00,
2013-03-09 12:09:00,32.4,24.0,30.44,East,84,0.0,-999.0,72,-99.99,,,0.00,weatherlink.com 1.10,2013-03-09 17:09:00,
2013-03-09 12:24:00,32.4,24.0,30.44,East,95,0.0,-999.0,72,-99.99,,,0.00,weatherlink.com 1.10,2013-03-09 17:24:00,
2013-03-09 12:39:00,32.4,24.0,30.44,NE,55,0.0,-999.0,72,-99.99,,,0.00,weatherlink.com 1.10,2013-03-09 17:39:00,
2013-03-09 12:54:00,32.5,24.0,30.43,East,84,0.0,-999.0,72,-99.99,,,0.01,weatherlink.com 1.10,2013-03-09 17:54:00,
2013-03-09 13:09:00,32.6,24.0,30.43,NE,51,0.0,-999.0,72,-99.99,,,0.01,weatherlink.com 1.10,2013-03-09 18:09:00,
2013-03-09 13:24:00,32.8,25.0,30.42,NE,50,0.0,-999.0,72,-99.99,,,0.01,weatherlink.com 1.10,2013-03-09 18:24:00,
2013-03-09 13:39:00,32.9,24.0,30.42,SE,130,0.0,-999.0,71,-99.99,,,0.01,weatherlink.com 1.10,2013-03-09 18:39:00,
2013-03-09 13:54:00,33.0,25.0,30.41,SSE,153,0.0,-999.0,72,-99.99,,,0.01,weatherlink.com 1.10,2013-03-09 18:54:00,
2013-03-09 14:09:00,33.3,25.0,30.41,East,99,0.0,-999.0,72,-99.99,,,0.01,weatherlink.com 1.10,2013-03-09 19:09:00,
2013-03-09 14:24:00,33.6,25.0,30.41,SSE,148,0.0,-999.0,71,-99.99,,,0.01,weatherlink.com 1.10,2013-03-09 19:24:00,
2013-03-09 14:39:00,34.2,26.0,30.41,SSE,150,0.0,-999.0,72,-99.99,,,0.01,weatherlink.com 1.10,2013-03-09 19:39:00,
2013-03-09 14:55:00,34.8,26.0,30.41,ESE,116,0.0,-999.0,71,-99.99,,,0.01,weatherlink.com 1.10,2013-03-09 19:55:00,
2013-03-09 15:10:00,35.2,27.0,30.40,SSE,166,0.0,-999.0,71,-99.99,,,0.01,weatherlink.com 1.10,2013-03-09 20:10:00,
2013-03-09 15:25:00,35.8,28.0,30.40,South,170,0.0,-999.0,72,-99.99,,,0.01,weatherlink.com 1.10,2013-03-09 20:25:00,
2013-03-09 15:40:00,36.3,29.0,30.39,SSE,153,0.0,-999.0,76,-99.99,,,0.02,weatherlink.com 1.10,2013-03-09 20:40:00,
2013-03-09 15:55:00,36.9,33.0,30.39,SE,130,0.0,-999.0,85,-99.99,,,0.02,weatherlink.com 1.10,2013-03-09 20:55:00,
2013-03-09 16:10:00,38.0,35.0,30.39,South,185,0.0,-999.0,87,-99.99,,,0.02,weatherlink.com 1.10,2013-03-09 21:10:00,
2013-03-09 16:25:00,38.7,34.0,30.39,SSE,148,0.0,-999.0,84,-99.99,,,0.02,weatherlink.com 1.10,2013-03-09 21:25:00,
2013-03-09 16:40:00,39.4,31.0,30.38,South,174,2.0,-999.0,71,-99.99,,,0.02,weatherlink.com 1.10,2013-03-09 21:40:00,
2013-03-09 16:55:00,39.6,28.0,30.38,South,188,2.0,-999.0,64,-99.99,,,0.02,weatherlink.com 1.10,2013-03-09 21:55:00,
2013-03-09 17:10:00,39.1,29.0,30.37,South,173,0.0,-999.0,67,-99.99,,,0.02,weatherlink.com 1.10,2013-03-09 22:10:00,
2013-03-09 17:25:00,38.3,30.0,30.37,SSE,161,1.0,-999.0,72,-99.99,,,0.02,weatherlink.com 1.10,2013-03-09 22:25:00,
2013-03-09 17:40:00,38.8,25.0,30.37,SSE,161,4.0,-999.0,57,-99.99,,,0.02,weatherlink.com 1.10,2013-03-09 22:40:00,
2013-03-09 17:55:00,37.7,25.0,30.37,SSE,150,0.0,-999.0,60,-99.99,,,0.02,weatherlink.com 1.10,2013-03-09 22:55:00,
2013-03-09 18:10:00,36.4,27.0,30.37,SSE,154,0.0,-999.0,68,-99.99,,,0.02,weatherlink.com 1.10,2013-03-09 23:10:00,
2013-03-09 18:25:00,35.9,27.0,30.37,NNE,29,2.0,-999.0,71,-99.99,,,0.02,weatherlink.com 1.10,2013-03-09 23:25:00,
2013-03-09 18:40:00,35.5,27.0,30.37,SE,127,1.0,-999.0,70,-99.99,,,0.02,weatherlink.com 1.10,2013-03-09 23:40:00,
2013-03-09 18:55:00,35.1,27.0,30.37,ENE,65,1.0,-999.0,71,-99.99,,,0.02,weatherlink.com 1.10,2013-03-09 23:55:00,
2013-03-09 19:10:00,35.2,27.0,30.36,ENE,61,0.0,-999.0,72,-99.99,,,0.02,weatherlink.com 1.10,2013-03-10 00:10:00,
2013-03-09 19:25:00,34.4,27.0,30.36,SE,134,1.0,-999.0,74,-99.99,,,0.02,weatherlink.com 1.10,2013-03-10 00:25:00,
2013-03-09 19:40:00,34.1,26.0,30.36,SSE,163,4.0,-999.0,72,-99.99,,,0.02,weatherlink.com 1.10,2013-03-10 00:40:00,
2013-03-09 19:55:00,36.5,24.0,30.36,South,183,1.0,-999.0,60,-99.99,,,0.02,weatherlink.com 1.10,2013-03-10 00:55:00,
2013-03-09 20:10:00,36.5,24.0,30.36,ESE,121,0.0,-999.0,61,-99.99,,,0.02,weatherlink.com 1.10,2013-03-10 01:10:00,
2013-03-09 20:25:00,37.0,23.0,30.36,South,170,5.0,-999.0,57,-99.99,,,0.02,weatherlink.com 1.10,2013-03-10 01:25:00,
2013-03-09 20:40:00,37.4,23.0,30.36,South,178,0.0,-999.0,56,-99.99,,,0.02,weatherlink.com 1.10,2013-03-10 01:40:00,
2013-03-09 20:55:00,37.2,22.0,30.36,ENE,75,1.0,-999.0,55,-99.99,,,0.02,weatherlink.com 1.10,2013-03-10 01:55:00,
2013-03-09 21:10:00,36.7,23.0,30.36,SSE,155,1.0,-999.0,58,-99.99,,,0.02,weatherlink.com 1.10,2013-03-10 02:10:00,
2013-03-09 21:25:00,36.6,23.0,30.36,South,169,1.0,-999.0,59,-99.99,,,0.02,weatherlink.com 1.10,2013-03-10 02:25:00,
2013-03-09 21:40:00,36.4,25.0,30.36,SSE,163,2.0,-999.0,63,-99.99,,,0.02,weatherlink.com 1.10,2013-03-10 02:40:00,
2013-03-09 21:55:00,35.6,24.0,30.36,ENE,74,0.0,-999.0,64,-99.99,,,0.02,weatherlink.com 1.10,2013-03-10 02:55:00,
2013-03-09 22:10:00,35.6,24.0,30.35,East,79,5.0,-999.0,64,-99.99,,,0.02,weatherlink.com 1.10,2013-03-10 03:10:00,
2013-03-09 22:25:00,35.2,24.0,30.35,East,87,0.0,-999.0,64,-99.99,,,0.02,weatherlink.com 1.10,2013-03-10 03:25:00,
2013-03-09 22:40:00,36.5,25.0,30.35,SW,217,3.0,-999.0,63,-99.99,,,0.02,weatherlink.com 1.10,2013-03-10 03:40:00,
2013-03-09 22:55:00,38.2,24.0,30.35,South,189,6.0,-999.0,58,-99.99,,,0.02,weatherlink.com 1.10,2013-03-10 03:55:00,
2013-03-09 23:10:00,37.8,25.0,30.35,SSW,205,5.0,-999.0,60,-99.99,,,0.02,weatherlink.com 1.10,2013-03-10 04:10:00,
2013-03-09 23:25:00,37.5,25.0,30.35,SE,141,3.0,-999.0,61,-99.99,,,0.02,weatherlink.com 1.10,2013-03-10 04:25:00,
2013-03-09 23:40:00,37.5,25.0,30.34,South,183,7.0,-999.0,61,-99.99,,,0.02,weatherlink.com 1.10,2013-03-10 04:40:00,
2013-03-09 23:55:00,37.6,25.0,30.34,SSE,167,6.0,-999.0,62,-99.99,,,0.02,weatherlink.com 1.10,2013-03-10 04:55:00,